Time,TemperatureF,DewpointF,PressureIn,WindDirection,WindDirectionDegrees,WindSpeedMPH,WindSpeedGustMPH,Humidity,HourlyPrecipIn,Conditions,Clouds,dailyrainin,SoftwareType,DateUTC
2013-01-12 00:01:00,31.8,29.3,30.27,ENE,67,0.0,0.0,90,0.02,,,0.12,WUHU21623XXSP,2013-01-12 05:01:00,
2013-01-12 00:02:00,31.8,29.3,30.27,ENE,67,0.0,0.0,90,0.02,,,0.12,WUHU21623XXSP,2013-01-12 05:02:00,
2013-01-12 00:03:00,31.8,29.3,30.27,ENE,67,0.0,0.0,90,0.02,,,0.12,WUHU21623XXSP,2013-01-12 05:03:00,
2013-01-12 00:16:00,31.8,29.3,30.27,ENE,67,0.0,0.0,90,0.02,,,0.00,WUHU21623XXSP,2013-01-12 05:16:00,
2013-01-12 00:21:00,31.8,29.3,30.27,ENE,67,0.0,0.0,90,0.02,,,0.00,WUHU21623XXSP,2013-01-12 05:21:00,
2013-01-12 00:26:00,31.8,29.3,30.28,ENE,67,0.0,0.0,90,0.02,,,0.00,WUHU21623XXSP,2013-01-12 05:26:00,
2013-01-12 00:31:00,31.8,29.3,30.27,ENE,67,0.0,0.0,90,0.02,,,0.00,WUHU21623XXSP,2013-01-12 05:31:00,
2013-01-12 00:36:00,31.6,29.1,30.27,ENE,67,0.0,0.0,90,0.02,,,0.00,WUHU21623XXSP,2013-01-12 05:36:00,
2013-01-12 00:41:00,31.8,29.3,30.26,ENE,67,0.0,0.0,90,0.02,,,0.00,WUHU21623XXSP,2013-01-12 05:41:00,
2013-01-12 00:46:00,31.6,29.1,30.26,ENE,67,0.0,0.0,90,0.02,,,0.00,WUHU21623XXSP,2013-01-12 05:46:00,
2013-01-12 00:51:00,31.6,29.1,30.27,ENE,67,0.0,0.0,90,0.00,,,0.00,WUHU21623XXSP,2013-01-12 05:51:00,
2013-01-12 00:56:00,31.6,29.1,30.27,ENE,67,0.0,0.0,90,0.00,,,0.00,WUHU21623XXSP,2013-01-12 05:56:00,
2013-01-12 01:01:00,31.8,29.3,30.27,ENE,67,0.0,0.0,90,0.00,,,0.00,WUHU21623XXSP,2013-01-12 06:01:00,
2013-01-12 01:06:00,31.8,29.3,30.26,ENE,67,0.0,0.0,90,0.00,,,0.00,WUHU21623XXSP,2013-01-12 06:06:00,
2013-01-12 01:11:00,31.8,29.3,30.26,ENE,67,0.0,0.0,90,0.00,,,0.00,WUHU21623XXSP,2013-01-12 06:11:00,
2013-01-12 01:16:00,31.8,29.3,30.26,ENE,67,0.0,0.0,90,0.00,,,0.00,WUHU21623XXSP,2013-01-12 06:16:00,
2013-01-12 01:21:00,31.8,29.3,30.26,ENE,67,0.0,0.0,90,0.00,,,0.00,WUHU21623XXSP,2013-01-12 06:21:00,
2013-01-12 01:26:00,31.8,29.3,30.26,ENE,67,0.0,0.0,90,0.00,,,0.00,WUHU21623XXSP,2013-01-12 06:26:00,
2013-01-12 01:31:00,31.8,29.3,30.26,ENE,67,0.0,0.0,90,0.00,,,0.00,WUHU21623XXSP,2013-01-12 06:31:00,
2013-01-12 01:36:00,31.8,29.3,30.27,ENE,67,0.0,0.0,90,0.00,,,0.00,WUHU21623XXSP,2013-01-12 06:36:00,
2013-01-12 01:41:00,31.8,29.3,30.27,ENE,67,0.0,0.0,90,0.00,,,0.00,WUHU21623XXSP,2013-01-12 06:41:00,
2013-01-12 01:46:00,31.8,29.3,30.27,ENE,67,0.0,0.0,90,0.00,,,0.00,WUHU21623XXSP,2013-01-12 06:46:00,
2013-01-12 01:51:00,31.8,29.3,30.27,ENE,67,0.0,0.0,90,0.00,,,0.00,WUHU21623XXSP,2013-01-12 06:51:00,
2013-01-12 01:56:00,31.8,29.3,30.27,ENE,67,0.0,0.0,90,0.00,,,0.00,WUHU21623XXSP,2013-01-12 06:56:00,
2013-01-12 02:01:00,31.8,29.3,30.27,ENE,67,0.0,0.0,90,0.00,,,0.00,WUHU21623XXSP,2013-01-12 07:01:00,
2013-01-12 02:06:00,31.8,29.3,30.26,ENE,67,0.0,0.0,90,0.00,,,0.00,WUHU21623XXSP,2013-01-12 07:06:00,
2013-01-12 02:11:00,32.2,29.9,30.27,ENE,67,0.0,0.0,91,0.00,,,0.00,WUHU21623XXSP,2013-01-12 07:11:00,
2013-01-12 02:16:00,31.8,29.3,30.27,ENE,67,0.0,0.0,90,0.00,,,0.00,WUHU21623XXSP,2013-01-12 07:16:00,
2013-01-12 02:21:00,31.8,29.3,30.27,ENE,67,0.0,0.0,90,0.00,,,0.00,WUHU21623XXSP,2013-01-12 07:21:00,
2013-01-12 02:26:00,31.8,29.3,30.27,ENE,67,0.0,0.0,90,0.00,,,0.00,WUHU21623XXSP,2013-01-12 07:26:00,
2013-01-12 02:31:00,31.8,29.3,30.26,ENE,67,0.0,0.0,90,0.00,,,0.00,WUHU21623XXSP,2013-01-12 07:31:00,
2013-01-12 02:36:00,31.8,29.3,30.26,ENE,67,0.0,0.0,90,0.00,,,0.00,WUHU21623XXSP,2013-01-12 07:36:00,
2013-01-12 02:41:00,31.8,29.3,30.25,ENE,67,0.0,0.0,90,0.00,,,0.00,WUHU21623XXSP,2013-01-12 07:41:00,
2013-01-12 02:46:00,31.8,29.3,30.26,ENE,67,0.0,0.0,90,0.00,,,0.00,WUHU21623XXSP,2013-01-12 07:46:00,
2013-01-12 02:51:00,31.8,29.3,30.26,ENE,67,0.0,0.0,90,0.00,,,0.00,WUHU21623XXSP,2013-01-12 07:51:00,
2013-01-12 02:56:00,31.8,29.3,30.26,ENE,67,0.0,0.0,90,0.00,,,0.00,WUHU21623XXSP,2013-01-12 07:56:00,
2013-01-12 03:01:00,31.8,29.3,30.26,ENE,67,0.0,0.0,90,0.00,,,0.00,WUHU21623XXSP,2013-01-12 08:01:00,
2013-01-12 03:06:00,31.8,29.3,30.26,ENE,67,0.0,0.0,90,0.00,,,0.00,WUHU21623XXSP,2013-01-12 08:06:00,
2013-01-12 03:11:00,31.8,29.3,30.26,ENE,67,0.0,0.0,90,0.00,,,0.00,WUHU21623XXSP,2013-01-12 08:11:00,
2013-01-12 03:15:00,31.8,29.3,30.25,ENE,67,0.0,0.0,90,0.00,,,0.00,WUHU21623XXSP,2013-01-12 08:15:00,
2013-01-12 03:20:00,31.8,29.3,30.25,ENE,67,0.0,0.0,90,0.00,,,0.00,WUHU21623XXSP,2013-01-12 08:20:00,
2013-01-12 03:25:00,31.8,29.3,30.25,ENE,67,0.0,0.0,90,0.00,,,0.00,WUHU21623XXSP,2013-01-12 08:25:00,
2013-01-12 03:30:00,31.8,29.3,30.24,ENE,67,0.0,0.0,90,0.00,,,0.00,WUHU21623XXSP,2013-01-12 08:30:00,
2013-01-12 03:35:00,31.8,29.3,30.24,ENE,67,0.0,0.0,90,0.00,,,0.00,WUHU21623XXSP,2013-01-12 08:35:00,
2013-01-12 03:40:00,31.8,29.3,30.25,ENE,67,0.0,0.0,90,0.00,,,0.00,WUHU21623XXSP,2013-01-12 08:40:00,
2013-01-12 03:45:00,31.8,29.3,30.24,ENE,67,0.0,0.0,90,0.00,,,0.00,WUHU21623XXSP,2013-01-12 08:45:00,
2013-01-12 03:50:00,31.8,29.3,30.24,ENE,67,0.0,0.0,90,0.00,,,0.00,WUHU21623XXSP,2013-01-12 08:50:00,
2013-01-12 03:55:00,31.8,29.3,30.25,ENE,67,0.0,0.0,90,0.00,,,0.00,WUHU21623XXSP,2013-01-12 08:55:00,
2013-01-12 04:00:00,31.8,29.3,30.25,ENE,67,0.0,0.0,90,0.00,,,0.00,WUHU21623XXSP,2013-01-12 09:00:00,
2013-01-12 04:05:00,31.8,29.3,30.25,ENE,67,0.0,0.0,90,0.00,,,0.00,WUHU21623XXSP,2013-01-12 09:05:00,
2013-01-12 04:10:00,31.8,29.3,30.24,ENE,67,0.0,0.0,90,0.00,,,0.00,WUHU21623XXSP,2013-01-12 09:10:00,
2013-01-12 04:15:00,31.8,29.3,30.24,ENE,67,0.0,0.0,90,0.00,,,0.00,WUHU21623XXSP,2013-01-12 09:15:00,
2013-01-12 04:20:00,31.8,29.3,30.25,ENE,67,0.0,0.0,90,0.00,,,0.00,WUHU21623XXSP,2013-01-12 09:20:00,
2013-01-12 04:25:00,31.8,29.3,30.25,ENE,67,0.0,0.0,90,0.00,,,0.00,WUHU21623XXSP,2013-01-12 09:25:00,
2013-01-12 04:30:00,31.8,29.3,30.25,ENE,67,0.0,0.0,90,0.00,,,0.00,WUHU21623XXSP,2013-01-12 09:30:00,
2013-01-12 04:35:00,31.8,29.3,30.25,ENE,67,0.0,0.0,90,0.00,,,0.00,WUHU21623XXSP,2013-01-12 09:35:00,
2013-01-12 04:40:00,31.8,29.3,30.25,ENE,67,0.0,0.0,90,0.00,,,0.00,WUHU21623XXSP,2013-01-12 09:40:00,
2013-01-12 04:46:00,32.2,29.6,30.24,ENE,67,0.0,0.0,90,0.00,,,0.00,WUHU21623XXSP,2013-01-12 09:46:00,
2013-01-12 04:51:00,32.0,29.5,30.25,ENE,67,0.0,0.0,90,0.00,,,0.00,WUHU21623XXSP,2013-01-12 09:51:00,
2013-01-12 04:56:00,32.0,29.5,30.24,ENE,67,0.0,0.0,90,0.00,,,0.00,WUHU21623XXSP,2013-01-12 09:56:00,
2013-01-12 05:01:00,31.8,29.3,30.24,ENE,67,0.0,0.0,90,0.00,,,0.00,WUHU21623XXSP,2013-01-12 10:01:00,
2013-01-12 05:06:00,31.8,29.3,30.24,ENE,67,0.0,0.0,90,0.00,,,0.00,WUHU21623XXSP,2013-01-12 10:06:00,
2013-01-12 05:11:00,31.8,29.3,30.24,ENE,67,0.0,0.0,90,0.00,,,0.00,WUHU21623XXSP,2013-01-12 10:11:00,
2013-01-12 05:16:00,31.8,29.6,30.23,ENE,67,0.0,0.0,91,0.00,,,0.00,WUHU21623XXSP,2013-01-12 10:16:00,
2013-01-12 05:21:00,31.8,29.6,30.24,ENE,67,0.0,0.0,91,0.00,,,0.00,WUHU21623XXSP,2013-01-12 10:21:00,
2013-01-12 05:26:00,31.8,29.6,30.23,ENE,67,0.0,0.0,91,0.00,,,0.00,WUHU21623XXSP,2013-01-12 10:26:00,
2013-01-12 05:31:00,31.8,29.6,30.23,ENE,67,0.0,0.0,91,0.00,,,0.00,WUHU21623XXSP,2013-01-12 10:31:00,
2013-01-12 05:36:00,31.8,29.6,30.23,ENE,67,0.0,0.0,91,0.00,,,0.00,WUHU21623XXSP,2013-01-12 10:36:00,
2013-01-12 05:41:00,31.8,29.6,30.23,ENE,67,0.0,0.0,91,0.00,,,0.00,WUHU21623XXSP,2013-01-12 10:41:00,
2013-01-12 05:46:00,31.8,29.6,30.23,ENE,67,0.0,0.0,91,0.00,,,0.00,WUHU21623XXSP,2013-01-12 10:46:00,
2013-01-12 05:51:00,31.8,29.6,30.23,ENE,67,0.0,0.0,91,0.00,,,0.00,WUHU21623XXSP,2013-01-12 10:51:00,
2013-01-12 05:56:00,31.8,29.6,30.24,ENE,67,0.0,0.0,91,0.00,,,0.00,WUHU21623XXSP,2013-01-12 10:56:00,
2013-01-12 06:01:00,31.8,29.6,30.23,ENE,67,0.0,0.0,91,0.00,,,0.00,WUHU21623XXSP,2013-01-12 11:01:00,
2013-01-12 06:06:00,31.8,29.6,30.24,ENE,67,0.0,0.0,91,0.00,,,0.00,WUHU21623XXSP,2013-01-12 11:06:00,
2013-01-12 06:11:00,31.8,29.6,30.24,ENE,67,0.0,0.0,91,0.00,,,0.00,WUHU21623XXSP,2013-01-12 11:11:00,
2013-01-12 06:16:00,31.8,29.6,30.25,ENE,67,0.0,0.0,91,0.00,,,0.00,WUHU21623XXSP,2013-01-12 11:16:00,
2013-01-12 06:21:00,31.8,29.6,30.25,ENE,67,0.0,0.0,91,0.00,,,0.00,WUHU21623XXSP,2013-01-12 11:21:00,
2013-01-12 06:26:00,31.8,29.6,30.26,ENE,67,0.0,0.0,91,0.00,,,0.00,WUHU21623XXSP,2013-01-12 11:26:00,
2013-01-12 06:31:00,31.8,29.6,30.26,ENE,67,0.0,0.0,91,0.00,,,0.00,WUHU21623XXSP,2013-01-12 11:31:00,
2013-01-12 06:36:00,31.8,29.6,30.26,ENE,67,0.0,0.0,91,0.00,,,0.00,WUHU21623XXSP,2013-01-12 11:36:00,
2013-01-12 06:41:00,31.8,29.6,30.24,ENE,67,0.0,0.0,91,0.00,,,0.00,WUHU21623XXSP,2013-01-12 11:41:00,
2013-01-12 06:46:00,31.8,29.6,30.25,ENE,67,0.0,0.0,91,0.00,,,0.00,WUHU21623XXSP,2013-01-12 11:46:00,
2013-01-12 06:51:00,31.8,29.6,30.25,ENE,67,0.0,0.0,91,0.00,,,0.00,WUHU21623XXSP,2013-01-12 11:51:00,
2013-01-12 06:56:00,31.8,29.6,30.26,ENE,67,0.0,0.0,91,0.00,,,0.00,WUHU21623XXSP,2013-01-12 11:56:00,
2013-01-12 07:01:00,31.8,29.6,30.26,ENE,67,0.0,0.0,91,0.00,,,0.00,WUHU21623XXSP,2013-01-12 12:01:00,
2013-01-12 07:06:00,31.8,29.6,30.26,ENE,67,0.0,0.0,91,0.00,,,0.00,WUHU21623XXSP,2013-01-12 12:06:00,
2013-01-12 07:11:00,31.8,29.6,30.26,ENE,67,0.0,0.0,91,0.00,,,0.00,WUHU21623XXSP,2013-01-12 12:11:00,
2013-01-12 07:16:00,31.8,29.6,30.26,ENE,67,0.0,0.0,91,0.00,,,0.00,WUHU21623XXSP,2013-01-12 12:16:00,
2013-01-12 07:21:00,31.8,29.6,30.26,ENE,67,0.0,0.0,91,0.00,,,0.00,WUHU21623XXSP,2013-01-12 12:21:00,
2013-01-12 07:26:00,31.8,29.6,30.26,ENE,67,0.0,0.0,91,0.00,,,0.00,WUHU21623XXSP,2013-01-12 12:26:00,
2013-01-12 07:31:00,31.8,29.6,30.26,ENE,67,0.0,0.0,91,0.00,,,0.00,WUHU21623XXSP,2013-01-12 12:31:00,
2013-01-12 07:36:00,31.8,29.6,30.27,ENE,67,0.0,0.0,91,0.00,,,0.00,WUHU21623XXSP,2013-01-12 12:36:00,
2013-01-12 07:41:00,31.8,29.6,30.27,ENE,67,0.0,0.0,91,0.00,,,0.00,WUHU21623XXSP,2013-01-12 12:41:00,
2013-01-12 07:46:00,31.8,29.6,30.26,ENE,67,0.0,0.0,91,0.00,,,0.00,WUHU21623XXSP,2013-01-12 12:46:00,
2013-01-12 07:51:00,31.8,29.6,30.27,ENE,67,0.0,0.0,91,0.00,,,0.00,WUHU21623XXSP,2013-01-12 12:51:00,
2013-01-12 07:56:00,32.0,29.7,30.27,ENE,67,0.0,0.0,91,0.00,,,0.00,WUHU21623XXSP,2013-01-12 12:56:00,
2013-01-12 08:01:00,33.1,30.7,30.27,ENE,67,0.0,0.0,91,0.00,,,0.00,WUHU21623XXSP,2013-01-12 13:01:00,
2013-01-12 08:06:00,32.5,30.2,30.28,ENE,67,0.0,0.0,91,0.00,,,0.00,WUHU21623XXSP,2013-01-12 13:06:00,
2013-01-12 08:11:00,32.2,29.9,30.28,ENE,67,0.0,0.0,91,0.00,,,0.00,WUHU21623XXSP,2013-01-12 13:11:00,
2013-01-12 08:16:00,32.2,29.9,30.28,ENE,67,0.0,0.0,91,0.00,,,0.00,WUHU21623XXSP,2013-01-12 13:16:00,
2013-01-12 08:21:00,32.2,29.9,30.28,ENE,67,0.0,0.0,91,0.00,,,0.00,WUHU21623XXSP,2013-01-12 13:21:00,
2013-01-12 08:26:00,32.2,29.9,30.28,ENE,67,0.0,0.0,91,0.00,,,0.00,WUHU21623XXSP,2013-01-12 13:26:00,
2013-01-12 08:31:00,32.2,29.9,30.27,ENE,67,0.0,0.0,91,0.00,,,0.00,WUHU21623XXSP,2013-01-12 13:31:00,
2013-01-12 08:36:00,32.4,30.1,30.28,ENE,67,0.0,0.0,91,0.00,,,0.00,WUHU21623XXSP,2013-01-12 13:36:00,
2013-01-12 08:41:00,32.4,30.1,30.28,ENE,67,0.0,0.0,91,0.00,,,0.00,WUHU21623XXSP,2013-01-12 13:41:00,
2013-01-12 08:46:00,32.4,30.1,30.28,ENE,67,0.0,0.0,91,0.00,,,0.00,WUHU21623XXSP,2013-01-12 13:46:00,
2013-01-12 08:51:00,32.4,30.1,30.27,ENE,67,0.0,0.0,91,0.00,,,0.00,WUHU21623XXSP,2013-01-12 13:51:00,
2013-01-12 08:56:00,32.4,30.1,30.27,ENE,67,0.0,0.0,91,0.00,,,0.00,WUHU21623XXSP,2013-01-12 13:56:00,
2013-01-12 09:01:00,32.4,30.1,30.27,ENE,67,0.0,0.0,91,0.02,,,0.02,WUHU21623XXSP,2013-01-12 14:01:00,
2013-01-12 09:06:00,32.4,30.1,30.26,ENE,67,0.0,0.0,91,0.02,,,0.02,WUHU21623XXSP,2013-01-12 14:06:00,
2013-01-12 09:11:00,32.4,30.1,30.26,ENE,67,0.0,0.0,91,0.02,,,0.02,WUHU21623XXSP,2013-01-12 14:11:00,
2013-01-12 09:16:00,32.4,30.1,30.27,ENE,67,0.0,0.0,91,0.02,,,0.02,WUHU21623XXSP,2013-01-12 14:16:00,
2013-01-12 09:21:00,32.4,30.1,30.27,ENE,67,0.0,0.0,91,0.02,,,0.02,WUHU21623XXSP,2013-01-12 14:21:00,
2013-01-12 09:26:00,32.5,30.2,30.27,ENE,67,0.0,0.0,91,0.02,,,0.02,WUHU21623XXSP,2013-01-12 14:26:00,
2013-01-12 09:31:00,32.5,30.2,30.27,ENE,67,0.0,0.0,91,0.02,,,0.02,WUHU21623XXSP,2013-01-12 14:31:00,
2013-01-12 09:36:00,32.5,30.2,30.27,ENE,67,0.0,0.0,91,0.02,,,0.02,WUHU21623XXSP,2013-01-12 14:36:00,
2013-01-12 09:41:00,32.5,30.2,30.27,ENE,67,0.0,0.0,91,0.02,,,0.02,WUHU21623XXSP,2013-01-12 14:41:00,
2013-01-12 09:46:00,32.4,30.1,30.27,ENE,67,0.0,0.0,91,0.02,,,0.02,WUHU21623XXSP,2013-01-12 14:46:00,
2013-01-12 09:51:00,32.5,30.2,30.28,ENE,67,0.0,0.0,91,0.02,,,0.02,WUHU21623XXSP,2013-01-12 14:51:00,
2013-01-12 09:56:00,32.5,30.2,30.27,ENE,67,0.0,0.0,91,0.00,,,0.02,WUHU21623XXSP,2013-01-12 14:56:00,
2013-01-12 10:01:00,32.5,30.2,30.26,ENE,67,0.0,0.0,91,0.02,,,0.04,WUHU21623XXSP,2013-01-12 15:01:00,
2013-01-12 10:06:00,32.7,30.4,30.26,ENE,67,0.0,0.0,91,0.02,,,0.04,WUHU21623XXSP,2013-01-12 15:06:00,
2013-01-12 10:11:00,32.7,30.4,30.26,ENE,67,0.0,0.0,91,0.02,,,0.04,WUHU21623XXSP,2013-01-12 15:11:00,
2013-01-12 10:16:00,32.7,30.4,30.26,ENE,67,0.0,0.0,91,0.02,,,0.04,WUHU21623XXSP,2013-01-12 15:16:00,
2013-01-12 10:21:00,32.7,30.4,30.25,ENE,67,0.0,0.0,91,0.02,,,0.04,WUHU21623XXSP,2013-01-12 15:21:00,
2013-01-12 10:26:00,32.9,30.5,30.26,ENE,67,0.0,0.0,91,0.02,,,0.04,WUHU21623XXSP,2013-01-12 15:26:00,
2013-01-12 10:31:00,32.7,30.4,30.26,ENE,67,0.0,0.0,91,0.02,,,0.04,WUHU21623XXSP,2013-01-12 15:31:00,
2013-01-12 10:36:00,32.7,30.4,30.25,ENE,67,0.0,0.0,91,0.02,,,0.04,WUHU21623XXSP,2013-01-12 15:36:00,
2013-01-12 10:41:00,32.7,30.4,30.25,ENE,67,0.0,0.0,91,0.02,,,0.04,WUHU21623XXSP,2013-01-12 15:41:00,
2013-01-12 10:46:00,32.7,30.4,30.25,ENE,67,0.0,0.0,91,0.02,,,0.04,WUHU21623XXSP,2013-01-12 15:46:00,
2013-01-12 10:51:00,32.7,30.4,30.25,ENE,67,0.0,0.0,91,0.02,,,0.04,WUHU21623XXSP,2013-01-12 15:51:00,
2013-01-12 10:56:00,32.9,30.5,30.25,ENE,67,0.0,0.0,91,0.00,,,0.04,WUHU21623XXSP,2013-01-12 15:56:00,
2013-01-12 11:01:00,33.1,30.7,30.23,ENE,67,0.0,0.0,91,0.00,,,0.04,WUHU21623XXSP,2013-01-12 16:01:00,
2013-01-12 11:06:00,33.1,30.7,30.23,ENE,67,0.0,0.0,91,0.00,,,0.04,WUHU21623XXSP,2013-01-12 16:06:00,
2013-01-12 11:11:00,33.3,30.9,30.23,ENE,67,0.0,0.0,91,0.00,,,0.04,WUHU21623XXSP,2013-01-12 16:11:00,
2013-01-12 11:16:00,33.3,30.9,30.23,ENE,67,0.0,0.0,91,0.00,,,0.04,WUHU21623XXSP,2013-01-12 16:16:00,
2013-01-12 11:21:00,33.1,30.7,30.23,ENE,67,0.0,0.0,91,0.00,,,0.04,WUHU21623XXSP,2013-01-12 16:21:00,
2013-01-12 11:26:00,33.3,30.9,30.23,ENE,67,0.0,0.0,91,0.00,,,0.04,WUHU21623XXSP,2013-01-12 16:26:00,
2013-01-12 11:31:00,33.4,31.0,30.23,ENE,67,0.0,0.0,91,0.00,,,0.04,WUHU21623XXSP,2013-01-12 16:31:00,
2013-01-12 11:36:00,33.6,31.2,30.22,ENE,67,0.0,0.0,91,0.00,,,0.04,WUHU21623XXSP,2013-01-12 16:36:00,
2013-01-12 11:41:00,33.6,31.2,30.21,ENE,67,0.0,0.0,91,0.00,,,0.04,WUHU21623XXSP,2013-01-12 16:41:00,
2013-01-12 11:46:00,33.8,31.4,30.21,ENE,67,0.0,0.0,91,0.00,,,0.04,WUHU21623XXSP,2013-01-12 16:46:00,
2013-01-12 11:51:00,34.0,31.6,30.20,ENE,67,0.0,0.0,91,0.02,,,0.06,WUHU21623XXSP,2013-01-12 16:51:00,
2013-01-12 11:56:00,35.2,33.1,30.21,ENE,67,0.0,0.0,92,0.02,,,0.06,WUHU21623XXSP,2013-01-12 16:56:00,
2013-01-12 12:01:00,35.4,33.0,30.21,ENE,67,0.0,0.0,91,0.02,,,0.06,WUHU21623XXSP,2013-01-12 17:01:00,
2013-01-12 12:06:00,34.9,32.5,30.21,ENE,67,0.0,0.0,91,0.02,,,0.06,WUHU21623XXSP,2013-01-12 17:06:00,
2013-01-12 12:11:00,34.5,32.4,30.21,ENE,67,0.0,0.0,92,0.02,,,0.06,WUHU21623XXSP,2013-01-12 17:11:00,
2013-01-12 12:16:00,34.9,32.7,30.22,ENE,67,0.0,0.0,92,0.02,,,0.06,WUHU21623XXSP,2013-01-12 17:16:00,
2013-01-12 12:21:00,34.7,32.5,30.21,ENE,67,0.0,0.0,92,0.02,,,0.06,WUHU21623XXSP,2013-01-12 17:21:00,
2013-01-12 12:26:00,34.9,32.7,30.20,ENE,67,0.0,0.0,92,0.02,,,0.06,WUHU21623XXSP,2013-01-12 17:26:00,
2013-01-12 12:31:00,35.2,33.1,30.20,ENE,67,0.0,0.0,92,0.02,,,0.06,WUHU21623XXSP,2013-01-12 17:31:00,
2013-01-12 12:36:00,35.2,32.8,30.20,ENE,67,0.0,0.0,91,0.02,,,0.06,WUHU21623XXSP,2013-01-12 17:36:00,
2013-01-12 12:41:00,35.4,33.0,30.20,ENE,67,0.0,0.0,91,0.02,,,0.06,WUHU21623XXSP,2013-01-12 17:41:00,
2013-01-12 12:46:00,35.4,33.0,30.20,ENE,67,0.0,0.0,91,0.02,,,0.06,WUHU21623XXSP,2013-01-12 17:46:00,
2013-01-12 12:51:00,36.1,33.7,30.21,ENE,67,0.0,0.0,91,0.00,,,0.06,WUHU21623XXSP,2013-01-12 17:51:00,
2013-01-12 12:56:00,35.8,33.4,30.21,ENE,67,0.0,0.0,91,0.00,,,0.06,WUHU21623XXSP,2013-01-12 17:56:00,
2013-01-12 13:01:00,35.6,33.2,30.21,ENE,67,0.0,0.0,91,0.00,,,0.06,WUHU21623XXSP,2013-01-12 18:01:00,
2013-01-12 13:06:00,35.8,33.4,30.21,ENE,67,0.0,0.0,91,0.00,,,0.06,WUHU21623XXSP,2013-01-12 18:06:00,
2013-01-12 13:11:00,35.8,33.4,30.22,ENE,67,0.0,0.0,91,0.02,,,0.08,WUHU21623XXSP,2013-01-12 18:11:00,
2013-01-12 13:16:00,35.8,33.4,30.22,ENE,67,0.0,0.0,91,0.02,,,0.08,WUHU21623XXSP,2013-01-12 18:16:00,
2013-01-12 13:21:00,36.0,33.5,30.22,ENE,67,0.0,0.0,91,0.02,,,0.08,WUHU21623XXSP,2013-01-12 18:21:00,
2013-01-12 13:26:00,35.8,33.4,30.21,ENE,67,0.0,0.0,91,0.02,,,0.08,WUHU21623XXSP,2013-01-12 18:26:00,
2013-01-12 13:31:00,36.1,33.5,30.21,ENE,67,0.0,0.0,91,0.02,,,0.08,WUHU21623XXSP,2013-01-12 18:31:00,
2013-01-12 13:36:00,36.3,33.9,30.22,ENE,67,0.0,0.0,91,0.02,,,0.08,WUHU21623XXSP,2013-01-12 18:36:00,
2013-01-12 13:41:00,36.3,33.9,30.21,ENE,67,0.0,0.0,91,0.02,,,0.08,WUHU21623XXSP,2013-01-12 18:41:00,
2013-01-12 13:46:00,36.3,33.9,30.22,ENE,67,0.0,0.0,91,0.02,,,0.08,WUHU21623XXSP,2013-01-12 18:46:00,
2013-01-12 13:51:00,36.3,33.9,30.23,ENE,67,0.0,0.0,91,0.02,,,0.08,WUHU21623XXSP,2013-01-12 18:51:00,
2013-01-12 13:56:00,36.3,33.9,30.22,ENE,67,0.0,0.0,91,0.02,,,0.08,WUHU21623XXSP,2013-01-12 18:56:00,
2013-01-12 14:01:00,36.3,33.9,30.22,ENE,67,0.0,0.0,91,0.02,,,0.08,WUHU21623XXSP,2013-01-12 19:01:00,
2013-01-12 14:06:00,36.3,33.9,30.21,ENE,67,0.0,0.0,91,0.02,,,0.08,WUHU21623XXSP,2013-01-12 19:06:00,
2013-01-12 14:11:00,36.5,34.1,30.21,ENE,67,0.0,0.0,91,0.00,,,0.08,WUHU21623XXSP,2013-01-12 19:11:00,
2013-01-12 14:16:00,37.0,34.9,30.21,ENE,67,0.0,0.0,92,0.00,,,0.08,WUHU21623XXSP,2013-01-12 19:16:00,
2013-01-12 14:21:00,37.0,34.6,30.21,ENE,67,0.0,0.0,91,0.00,,,0.08,WUHU21623XXSP,2013-01-12 19:21:00,
2013-01-12 14:26:00,37.2,34.8,30.21,ENE,67,0.0,0.0,91,0.00,,,0.08,WUHU21623XXSP,2013-01-12 19:26:00,
2013-01-12 14:31:00,37.2,34.8,30.22,ENE,67,0.0,0.0,91,0.00,,,0.08,WUHU21623XXSP,2013-01-12 19:31:00,
2013-01-12 14:36:00,37.6,35.0,30.22,ENE,67,0.0,0.0,91,0.00,,,0.08,WUHU21623XXSP,2013-01-12 19:36:00,
2013-01-12 14:41:00,37.6,35.1,30.22,ENE,67,0.0,0.0,91,0.00,,,0.08,WUHU21623XXSP,2013-01-12 19:41:00,
2013-01-12 14:46:00,37.6,35.1,30.22,ENE,67,0.0,0.0,91,0.00,,,0.08,WUHU21623XXSP,2013-01-12 19:46:00,
2013-01-12 14:51:00,37.8,35.3,30.22,ENE,67,0.0,0.0,91,0.00,,,0.08,WUHU21623XXSP,2013-01-12 19:51:00,
2013-01-12 14:56:00,37.9,35.5,30.22,ENE,67,0.0,0.0,91,0.00,,,0.08,WUHU21623XXSP,2013-01-12 19:56:00,
2013-01-12 15:01:00,37.9,35.5,30.22,ENE,67,0.0,0.0,91,0.00,,,0.08,WUHU21623XXSP,2013-01-12 20:01:00,
2013-01-12 15:06:00,37.9,35.5,30.22,ENE,67,0.0,0.0,91,0.00,,,0.08,WUHU21623XXSP,2013-01-12 20:06:00,
2013-01-12 15:11:00,37.6,35.1,30.23,ENE,67,0.0,0.0,91,0.00,,,0.08,WUHU21623XXSP,2013-01-12 20:11:00,
2013-01-12 15:16:00,37.2,34.8,30.22,ENE,67,0.0,0.0,91,0.00,,,0.08,WUHU21623XXSP,2013-01-12 20:16:00,
2013-01-12 15:21:00,37.2,34.8,30.22,ENE,67,0.0,0.0,91,0.00,,,0.08,WUHU21623XXSP,2013-01-12 20:21:00,
2013-01-12 15:26:00,37.9,35.5,30.22,ENE,67,0.0,0.0,91,0.00,,,0.08,WUHU21623XXSP,2013-01-12 20:26:00,
2013-01-12 15:31:00,37.6,35.1,30.22,ENE,67,0.0,0.0,91,0.00,,,0.08,WUHU21623XXSP,2013-01-12 20:31:00,
2013-01-12 15:36:00,37.9,35.5,30.22,ENE,67,0.0,0.0,91,0.02,,,0.10,WUHU21623XXSP,2013-01-12 20:36:00,
2013-01-12 15:41:00,37.9,35.5,30.22,ENE,67,0.0,0.0,91,0.02,,,0.10,WUHU21623XXSP,2013-01-12 20:41:00,
2013-01-12 15:46:00,37.2,34.8,30.22,ENE,67,0.0,0.0,91,0.02,,,0.10,WUHU21623XXSP,2013-01-12 20:46:00,
2013-01-12 15:51:00,36.9,34.7,30.22,ENE,67,0.0,0.0,92,0.02,,,0.10,WUHU21623XXSP,2013-01-12 20:51:00,
2013-01-12 15:56:00,36.9,34.7,30.22,ENE,67,0.0,0.0,92,0.02,,,0.10,WUHU21623XXSP,2013-01-12 20:56:00,
2013-01-12 16:01:00,36.7,34.5,30.21,ENE,67,0.0,0.0,92,0.02,,,0.10,WUHU21623XXSP,2013-01-12 21:01:00,
2013-01-12 16:06:00,36.7,34.5,30.22,ENE,67,0.0,0.0,92,0.02,,,0.10,WUHU21623XXSP,2013-01-12 21:06:00,
2013-01-12 16:11:00,36.5,34.1,30.21,ENE,67,0.0,0.0,91,0.02,,,0.10,WUHU21623XXSP,2013-01-12 21:11:00,
2013-01-12 16:16:00,36.3,33.9,30.21,ENE,67,0.0,0.0,91,0.02,,,0.10,WUHU21623XXSP,2013-01-12 21:16:00,
2013-01-12 16:21:00,36.3,34.2,30.21,ENE,67,0.0,0.0,92,0.02,,,0.10,WUHU21623XXSP,2013-01-12 21:21:00,
2013-01-12 16:26:00,36.3,34.2,30.22,ENE,67,0.0,0.0,92,0.02,,,0.10,WUHU21623XXSP,2013-01-12 21:26:00,
2013-01-12 16:31:00,36.5,34.3,30.22,ENE,67,0.0,0.0,92,0.02,,,0.10,WUHU21623XXSP,2013-01-12 21:31:00,
2013-01-12 16:36:00,36.3,34.2,30.21,ENE,67,0.0,0.0,92,0.00,,,0.10,WUHU21623XXSP,2013-01-12 21:36:00,
2013-01-12 16:41:00,36.3,34.2,30.21,ENE,67,0.0,0.0,92,0.00,,,0.10,WUHU21623XXSP,2013-01-12 21:41:00,
2013-01-12 16:46:00,36.3,34.2,30.21,ENE,67,0.0,0.0,92,0.00,,,0.10,WUHU21623XXSP,2013-01-12 21:46:00,
2013-01-12 16:51:00,36.3,34.2,30.21,ENE,67,0.0,0.0,92,0.00,,,0.10,WUHU21623XXSP,2013-01-12 21:51:00,
2013-01-12 16:56:00,36.3,34.2,30.22,ENE,67,0.0,0.0,92,0.00,,,0.10,WUHU21623XXSP,2013-01-12 21:56:00,
2013-01-12 17:01:00,36.5,34.3,30.22,ENE,67,0.0,0.0,92,0.00,,,0.10,WUHU21623XXSP,2013-01-12 22:01:00,
2013-01-12 17:06:00,36.5,34.3,30.22,ENE,67,0.0,0.0,92,0.00,,,0.10,WUHU21623XXSP,2013-01-12 22:06:00,
2013-01-12 17:11:00,36.5,34.3,30.23,ENE,67,0.0,0.0,92,0.00,,,0.10,WUHU21623XXSP,2013-01-12 22:11:00,
2013-01-12 17:16:00,36.5,34.3,30.23,ENE,67,0.0,0.0,92,0.00,,,0.10,WUHU21623XXSP,2013-01-12 22:16:00,
2013-01-12 17:21:00,36.3,34.2,30.22,ENE,67,0.0,0.0,92,0.00,,,0.10,WUHU21623XXSP,2013-01-12 22:21:00,
2013-01-12 17:26:00,36.1,34.0,30.22,ENE,67,0.0,0.0,92,0.00,,,0.10,WUHU21623XXSP,2013-01-12 22:26:00,
2013-01-12 17:31:00,36.3,34.2,30.22,ENE,67,0.0,0.0,92,0.00,,,0.10,WUHU21623XXSP,2013-01-12 22:31:00,
2013-01-12 17:36:00,36.7,34.5,30.22,ENE,67,0.0,0.0,92,0.00,,,0.10,WUHU21623XXSP,2013-01-12 22:36:00,
2013-01-12 17:41:00,37.2,35.1,30.22,SSE,157,0.0,2.9,92,0.00,,,0.10,WUHU21623XXSP,2013-01-12 22:41:00,
2013-01-12 17:46:00,37.9,35.8,30.21,SSE,157,0.0,2.9,92,0.00,,,0.10,WUHU21623XXSP,2013-01-12 22:46:00,
2013-01-12 17:51:00,38.3,36.1,30.22,SE,135,0.0,2.5,92,0.00,,,0.10,WUHU21623XXSP,2013-01-12 22:51:00,
2013-01-12 17:56:00,38.3,36.1,30.21,SSE,157,0.0,1.1,92,0.00,,,0.10,WUHU21623XXSP,2013-01-12 22:56:00,
2013-01-12 18:01:00,38.1,36.0,30.21,SE,135,0.0,0.0,92,0.00,,,0.10,WUHU21623XXSP,2013-01-12 23:01:00,
2013-01-12 18:06:00,38.3,36.1,30.21,SE,135,0.0,0.0,92,0.00,,,0.10,WUHU21623XXSP,2013-01-12 23:06:00,
2013-01-12 18:11:00,38.5,36.3,30.20,ESE,112,0.0,0.0,92,0.00,,,0.10,WUHU21623XXSP,2013-01-12 23:11:00,
2013-01-12 18:16:00,38.8,36.7,30.21,ESE,112,0.0,1.3,92,0.02,,,0.12,WUHU21623XXSP,2013-01-12 23:16:00,
2013-01-12 18:21:00,38.8,36.7,30.20,ESE,112,0.0,1.3,92,0.02,,,0.12,WUHU21623XXSP,2013-01-12 23:21:00,
2013-01-12 18:26:00,38.8,36.7,30.20,ESE,112,0.9,0.9,92,0.02,,,0.12,WUHU21623XXSP,2013-01-12 23:26:00,
2013-01-12 18:31:00,38.8,36.7,30.20,ESE,112,0.0,0.9,92,0.02,,,0.12,WUHU21623XXSP,2013-01-12 23:31:00,
2013-01-12 18:36:00,39.4,37.2,30.20,ESE,112,0.0,0.0,92,0.02,,,0.12,WUHU21623XXSP,2013-01-12 23:36:00,
2013-01-12 18:41:00,39.0,36.9,30.20,ESE,112,0.0,0.0,92,0.02,,,0.12,WUHU21623XXSP,2013-01-12 23:41:00,
2013-01-12 18:46:00,39.0,36.9,30.20,ESE,112,0.0,0.0,92,0.02,,,0.12,WUHU21623XXSP,2013-01-12 23:46:00,
2013-01-12 18:52:00,39.0,36.9,30.20,ESE,112,0.0,0.0,92,0.02,,,0.12,WUHU21623XXSP,2013-01-12 23:52:00,
2013-01-12 18:57:00,39.0,36.9,30.20,SE,135,0.0,0.0,92,0.02,,,0.12,WUHU21623XXSP,2013-01-12 23:57:00,
2013-01-12 19:02:00,39.4,37.2,30.20,SE,135,0.0,0.0,92,0.02,,,0.12,WUHU21623XXSP,2013-01-13 00:02:00,
2013-01-12 19:07:00,39.4,37.2,30.20,SE,135,0.0,0.0,92,0.02,,,0.12,WUHU21623XXSP,2013-01-13 00:07:00,
2013-01-12 19:12:00,39.0,36.9,30.20,SE,135,0.0,0.0,92,0.02,,,0.12,WUHU21623XXSP,2013-01-13 00:12:00,
2013-01-12 19:17:00,39.0,36.9,30.20,SE,135,0.0,0.0,92,0.00,,,0.12,WUHU21623XXSP,2013-01-13 00:17:00,
2013-01-12 19:22:00,39.0,36.9,30.20,SE,135,0.0,0.0,92,0.00,,,0.12,WUHU21623XXSP,2013-01-13 00:22:00,
2013-01-12 19:27:00,39.4,37.2,30.20,SE,135,0.0,0.0,92,0.00,,,0.12,WUHU21623XXSP,2013-01-13 00:27:00,
2013-01-12 19:32:00,39.4,37.2,30.20,SE,135,0.0,0.0,92,0.00,,,0.12,WUHU21623XXSP,2013-01-13 00:32:00,
2013-01-12 19:37:00,39.4,37.2,30.21,SE,135,0.0,0.0,92,0.00,,,0.12,WUHU21623XXSP,2013-01-13 00:37:00,
2013-01-12 19:42:00,39.0,36.9,30.20,SE,135,0.0,0.0,92,0.00,,,0.12,WUHU21623XXSP,2013-01-13 00:42:00,
2013-01-12 19:47:00,37.9,35.8,30.20,SE,135,0.0,0.0,92,0.00,,,0.12,WUHU21623XXSP,2013-01-13 00:47:00,
2013-01-12 19:52:00,37.4,35.1,30.21,SE,135,0.0,0.0,92,0.00,,,0.12,WUHU21623XXSP,2013-01-13 00:52:00,
2013-01-12 19:57:00,37.6,35.4,30.21,SE,135,0.0,0.0,92,0.00,,,0.12,WUHU21623XXSP,2013-01-13 00:57:00,
2013-01-12 20:02:00,36.5,34.3,30.21,SE,135,0.0,0.0,92,0.00,,,0.12,WUHU21623XXSP,2013-01-13 01:02:00,
2013-01-12 20:07:00,36.1,34.0,30.21,SE,135,0.0,0.0,92,0.00,,,0.12,WUHU21623XXSP,2013-01-13 01:07:00,
2013-01-12 20:12:00,36.1,34.0,30.21,SE,135,0.0,0.0,92,0.00,,,0.12,WUHU21623XXSP,2013-01-13 01:12:00,
2013-01-12 20:17:00,36.1,34.0,30.21,SE,135,0.0,0.0,92,0.00,,,0.12,WUHU21623XXSP,2013-01-13 01:17:00,
2013-01-12 20:22:00,36.1,34.0,30.21,SE,135,0.0,0.0,92,0.00,,,0.12,WUHU21623XXSP,2013-01-13 01:22:00,
2013-01-12 20:27:00,36.3,34.2,30.21,SE,135,0.0,0.0,92,0.00,,,0.12,WUHU21623XXSP,2013-01-13 01:27:00,
2013-01-12 20:32:00,36.3,34.2,30.20,SE,135,0.0,0.0,92,0.00,,,0.12,WUHU21623XXSP,2013-01-13 01:32:00,
2013-01-12 20:37:00,36.1,34.0,30.20,SE,135,0.0,0.0,92,0.00,,,0.12,WUHU21623XXSP,2013-01-13 01:37:00,
2013-01-12 20:42:00,36.1,34.0,30.21,SE,135,0.0,0.0,92,0.00,,,0.12,WUHU21623XXSP,2013-01-13 01:42:00,
2013-01-12 20:47:00,36.1,34.0,30.20,SE,135,0.0,0.0,92,0.00,,,0.12,WUHU21623XXSP,2013-01-13 01:47:00,
2013-01-12 20:52:00,36.1,34.0,30.20,SE,135,0.0,0.0,92,0.00,,,0.12,WUHU21623XXSP,2013-01-13 01:52:00,
2013-01-12 20:57:00,36.1,34.0,30.20,SE,135,0.0,0.0,92,0.00,,,0.12,WUHU21623XXSP,2013-01-13 01:57:00,
2013-01-12 21:02:00,36.0,33.8,30.20,SE,135,0.0,0.0,92,0.00,,,0.12,WUHU21623XXSP,2013-01-13 02:02:00,
2013-01-12 21:07:00,36.0,33.8,30.20,SE,135,0.0,0.0,92,0.00,,,0.12,WUHU21623XXSP,2013-01-13 02:07:00,
2013-01-12 21:12:00,36.0,33.8,30.20,SE,135,0.0,0.0,92,0.00,,,0.12,WUHU21623XXSP,2013-01-13 02:12:00,
2013-01-12 21:17:00,35.8,33.6,30.20,SE,135,0.0,0.0,92,0.00,,,0.12,WUHU21623XXSP,2013-01-13 02:17:00,
2013-01-12 21:22:00,35.8,33.6,30.20,SE,135,0.0,0.0,92,0.00,,,0.12,WUHU21623XXSP,2013-01-13 02:22:00,
2013-01-12 21:27:00,35.8,33.6,30.20,SE,135,0.0,0.0,92,0.00,,,0.12,WUHU21623XXSP,2013-01-13 02:27:00,
2013-01-12 21:32:00,35.8,33.6,30.20,SE,135,0.0,0.0,92,0.00,,,0.12,WUHU21623XXSP,2013-01-13 02:32:00,
2013-01-12 21:37:00,36.0,33.8,30.20,SE,135,0.0,0.0,92,0.00,,,0.12,WUHU21623XXSP,2013-01-13 02:37:00,
2013-01-12 21:42:00,36.3,34.2,30.20,SE,135,0.0,0.0,92,0.00,,,0.12,WUHU21623XXSP,2013-01-13 02:42:00,
2013-01-12 21:47:00,36.0,33.8,30.20,SE,135,0.0,0.0,92,0.00,,,0.12,WUHU21623XXSP,2013-01-13 02:47:00,
2013-01-12 21:52:00,36.0,33.8,30.20,SE,135,0.0,0.0,92,0.00,,,0.12,WUHU21623XXSP,2013-01-13 02:52:00,
2013-01-12 21:57:00,35.6,33.4,30.20,SE,135,0.0,0.0,92,0.00,,,0.12,WUHU21623XXSP,2013-01-13 02:57:00,
2013-01-12 22:02:00,35.4,33.3,30.20,SE,135,0.0,0.0,92,0.00,,,0.12,WUHU21623XXSP,2013-01-13 03:02:00,
2013-01-12 22:07:00,35.4,33.3,30.20,SE,135,0.0,0.0,92,0.00,,,0.12,WUHU21623XXSP,2013-01-13 03:07:00,
2013-01-12 22:12:00,35.4,33.3,30.20,SE,135,0.0,0.0,92,0.00,,,0.12,WUHU21623XXSP,2013-01-13 03:12:00,
2013-01-12 22:17:00,35.4,33.3,30.19,SE,135,0.0,0.0,92,0.00,,,0.12,WUHU21623XXSP,2013-01-13 03:17:00,
2013-01-12 22:22:00,35.2,33.1,30.20,SE,135,0.0,0.0,92,0.00,,,0.12,WUHU21623XXSP,2013-01-13 03:22:00,
2013-01-12 22:27:00,35.2,33.1,30.19,SE,135,0.0,0.0,92,0.00,,,0.12,WUHU21623XXSP,2013-01-13 03:27:00,
2013-01-12 22:32:00,35.4,33.3,30.20,SE,135,0.0,0.0,92,0.00,,,0.12,WUHU21623XXSP,2013-01-13 03:32:00,
2013-01-12 22:37:00,35.4,33.3,30.20,SE,135,0.0,0.0,92,0.00,,,0.12,WUHU21623XXSP,2013-01-13 03:37:00,
2013-01-12 22:42:00,35.8,33.6,30.20,SE,135,0.0,0.0,92,0.00,,,0.12,WUHU21623XXSP,2013-01-13 03:42:00,
2013-01-12 22:47:00,35.4,33.3,30.20,SE,135,0.0,0.0,92,0.00,,,0.12,WUHU21623XXSP,2013-01-13 03:47:00,
2013-01-12 22:52:00,35.6,33.4,30.20,SE,135,0.0,0.0,92,0.00,,,0.12,WUHU21623XXSP,2013-01-13 03:52:00,
2013-01-12 22:57:00,35.6,33.4,30.20,SE,135,0.0,0.0,92,0.00,,,0.12,WUHU21623XXSP,2013-01-13 03:57:00,
2013-01-12 23:02:00,35.8,33.6,30.20,SE,135,0.0,0.0,92,0.00,,,0.12,WUHU21623XXSP,2013-01-13 04:02:00,
2013-01-12 23:07:00,35.8,33.6,30.20,SE,135,0.0,0.0,92,0.00,,,0.12,WUHU21623XXSP,2013-01-13 04:07:00,
2013-01-12 23:12:00,35.8,33.6,30.20,SE,135,0.0,0.0,92,0.00,,,0.12,WUHU21623XXSP,2013-01-13 04:12:00,
2013-01-12 23:17:00,35.8,33.6,30.20,SE,135,0.0,0.0,92,0.00,,,0.12,WUHU21623XXSP,2013-01-13 04:17:00,
2013-01-12 23:22:00,35.8,33.6,30.20,SE,135,0.0,0.0,92,0.00,,,0.12,WUHU21623XXSP,2013-01-13 04:22:00,
2013-01-12 23:27:00,35.8,33.6,30.20,SE,135,0.0,0.0,92,0.00,,,0.12,WUHU21623XXSP,2013-01-13 04:27:00,
2013-01-12 23:32:00,35.6,33.4,30.20,SE,135,0.0,0.0,92,0.00,,,0.12,WUHU21623XXSP,2013-01-13 04:32:00,
2013-01-12 23:37:00,35.2,33.1,30.20,SE,135,0.0,0.0,92,0.00,,,0.12,WUHU21623XXSP,2013-01-13 04:37:00,
2013-01-12 23:42:00,35.2,33.1,30.20,SE,135,0.0,0.0,92,0.00,,,0.12,WUHU21623XXSP,2013-01-13 04:42:00,
2013-01-12 23:47:00,34.9,32.7,30.19,SE,135,0.0,0.0,92,0.00,,,0.12,WUHU21623XXSP,2013-01-13 04:47:00,
2013-01-12 23:52:00,35.2,33.1,30.19,SE,135,0.0,0.0,92,0.00,,,0.12,WUHU21623XXSP,2013-01-13 04:52:00,
2013-01-12 23:57:00,34.9,32.7,30.19,SE,135,0.0,0.0,92,0.00,,,0.12,WUHU21623XXSP,2013-01-13 04:57:00,